When you browse on this site, cookies collect data to enhance your experience and personalize the content and advertising you see.
Visit our Privacy Policy to learn more. By continuing to use the site, you agree to this use of cookies and data.
  • In Hungary
  • List of Countries
  • For 7 days
  • Water Temperature
  • Satellite Maps
  • Weather Map
  • News
  • Weather Widgets
  • user-avatar
    Login

    Hourly Weather Matrah

    Today, 21 March, Thursday

    Time Temperature Precipitation Wind Pressure Humidity
    00:00 +23°C° 0 mm 0 mps 756 mmHg 37%
    01:00 +22°C° 0 mm 0 mps 756 mmHg 37%
    02:00 +22°C° 0 mm 0 mps 756 mmHg 40%
    03:00 +21°C° 0 mm 0 mps 756 mmHg 44%
    04:00 +21°C° 0 mm 0 mps 756 mmHg 48%
    05:00 +21°C° 0 mm 0 mps 756 mmHg 48%
    06:00 +24°C° 0 mm 1 mps 757 mmHg 48%
    07:00 +24°C° 0 mm 1 mps 757 mmHg 48%
    08:00 +26°C° 0 mm 1 mps 757 mmHg 44%
    09:00 +28°C° 0 mm 1 mps 758 mmHg 40%
    10:00 +29°C° 0 mm 1 mps 758 mmHg 36%
    11:00 +30°C° 0 mm 2 mps 758 mmHg 34%
    12:00 +31°C° 0 mm 3 mps 757 mmHg 33%
    13:00 +33°C° 0 mm 3 mps 757 mmHg 32%
    14:00 +33°C° 0 mm 3 mps 757 mmHg 33%
    15:00 +32°C° 0 mm 4 mps 756 mmHg 35%
    16:00 +32°C° 0 mm 4 mps 756 mmHg 37%
    17:00 +30°C° 0 mm 4 mps 756 mmHg 42%
    18:00 +29°C° 0 mm 4 mps 756 mmHg 47%
    19:00 +28°C° 0 mm 4 mps 757 mmHg 52%
    20:00 +28°C° 0 mm 3 mps 757 mmHg 52%
    21:00 +28°C° 0 mm 3 mps 757 mmHg 52%
    22:00 +28°C° 0 mm 3 mps 758 mmHg 53%
    23:00 +28°C° 0 mm 3 mps 758 mmHg 51%

    Tomorrow, 22 March, Friday

    Time Temperature Precipitation Wind Pressure Humidity
    00:00 +28°C° 0 mm 2 mps 758 mmHg 49%
    01:00 +28°C° 0 mm 2 mps 758 mmHg 47%
    02:00 +28°C° 0 mm 2 mps 758 mmHg 43%
    03:00 +28°C° 0 mm 2 mps 757 mmHg 38%
    04:00 +29°C° 0 mm 1 mps 757 mmHg 33%
    05:00 +28°C° 0 mm 1 mps 758 mmHg 34%
    06:00 +28°C° 0 mm 1 mps 758 mmHg 34%
    07:00 +28°C° 0 mm 2 mps 758 mmHg 34%
    08:00 +29°C° 0 mm 1 mps 759 mmHg 30%
    09:00 +31°C° 0 mm 1 mps 759 mmHg 26%
    10:00 +32°C° 0 mm 1 mps 759 mmHg 23%
    11:00 +34°C° 0 mm 2 mps 759 mmHg 23%
    12:00 +35°C° 0 mm 3 mps 758 mmHg 23%
    13:00 +36°C° 0 mm 4 mps 758 mmHg 23%
    14:00 +34°C° 0 mm 4 mps 758 mmHg 28%
    15:00 +33°C° 0 mm 4 mps 758 mmHg 33%
    16:00 +30°C° 0 mm 4 mps 757 mmHg 37%
    17:00 +30°C° 0 mm 3 mps 758 mmHg 38%
    18:00 +29°C° 0 mm 2 mps 758 mmHg 39%
    19:00 +29°C° 0 mm 1 mps 758 mmHg 39%
    20:00 +28°C° 0 mm 1 mps 758 mmHg 40%
    21:00 +28°C° 0 mm 2 mps 759 mmHg 41%
    22:00 +28°C° 0 mm 3 mps 759 mmHg 41%
    23:00 +28°C° 0 mm 3 mps 759 mmHg 42%

    Day after tomorrow, 23 March, Saturday

    Time Temperature Precipitation Wind Pressure Humidity
    00:00 +28°C° 0 mm 2 mps 759 mmHg 42%
    01:00 +28°C° 0 mm 2 mps 759 mmHg 42%
    02:00 +28°C° 0 mm 3 mps 758 mmHg 45%
    03:00 +27°C° 0 mm 3 mps 758 mmHg 49%
    04:00 +27°C° 0 mm 4 mps 758 mmHg 52%
    05:00 +27°C° 0.1 mm 3 mps 758 mmHg 51%
    06:00 +27°C° 0.1 mm 3 mps 758 mmHg 51%
    07:00 +27°C° 0.1 mm 2 mps 759 mmHg 50%
    08:00 +29°C° 0 mm 2 mps 759 mmHg 43%
    09:00 +31°C° 0 mm 2 mps 759 mmHg 36%
    10:00 +34°C° 0 mm 2 mps 759 mmHg 29%
    11:00 +34°C° 0 mm 4 mps 759 mmHg 28%
    12:00 +35°C° 0 mm 5 mps 758 mmHg 28%
    13:00 +36°C° 0 mm 6 mps 758 mmHg 27%
    14:00 +36°C° 0 mm 6 mps 757 mmHg 28%
    15:00 +35°C° 0 mm 7 mps 756 mmHg 30%
    16:00 +35°C° 0 mm 7 mps 755 mmHg 32%
    17:00 +34°C° 0 mm 7 mps 756 mmHg 35%
    18:00 +34°C° 0 mm 6 mps 756 mmHg 38%
    19:00 +33°C° 0 mm 6 mps 756 mmHg 41%
    20:00 +33°C° 0 mm 5 mps 757 mmHg 42%
    21:00 +33°C° 0 mm 4 mps 757 mmHg 43%
    22:00 +32°C° 0 mm 4 mps 758 mmHg 43%
    23:00 +32°C° 0 mm 4 mps 757 mmHg 44%

    24 March, Sunday

    Time Temperature Precipitation Wind Pressure Humidity
    00:00 +31°C° 0 mm 3 mps 757 mmHg 44%
    01:00 +31°C° 0 mm 3 mps 756 mmHg 44%
    02:00 +30°C° 0 mm 3 mps 756 mmHg 49%
    03:00 +29°C° 0 mm 3 mps 756 mmHg 53%
    04:00 +28°C° 0 mm 3 mps 756 mmHg 58%
    05:00 +28°C° 0 mm 2 mps 756 mmHg 59%
    06:00 +28°C° 0 mm 2 mps 757 mmHg 61%
    07:00 +28°C° 0 mm 1 mps 757 mmHg 62%
    08:00 +29°C° 0 mm 2 mps 758 mmHg 54%
    09:00 +32°C° 0 mm 4 mps 758 mmHg 46%
    10:00 +34°C° 0 mm 5 mps 758 mmHg 38%
    11:00 +35°C° 0 mm 6 mps 757 mmHg 33%
    12:00 +36°C° 0 mm 7 mps 757 mmHg 28%
    13:00 +38°C° 0 mm 8 mps 756 mmHg 23%
    14:00 +38°C° 0 mm 8 mps 756 mmHg 23%
    15:00 +38°C° 0 mm 8 mps 755 mmHg 22%
    16:00 +38°C° 0 mm 8 mps 755 mmHg 21%
    17:00 +37°C° 0 mm 8 mps 755 mmHg 24%
    18:00 +36°C° 0 mm 7 mps 755 mmHg 26%
    19:00 +35°C° 0 mm 6 mps 755 mmHg 29%
    20:00 +34°C° 0 mm 6 mps 755 mmHg 31%
    21:00 +34°C° 0 mm 5 mps 756 mmHg 33%
    22:00 +33°C° 0 mm 5 mps 756 mmHg 34%
    23:00 +33°C° 0 mm 4 mps 756 mmHg 38%

    25 March, Monday

    Time Temperature Precipitation Wind Pressure Humidity
    00:00 +31°C° 0 mm 3 mps 756 mmHg 41%
    01:00 +30°C° 0 mm 3 mps 755 mmHg 44%
    02:00 +29°C° 0 mm 3 mps 755 mmHg 47%
    03:00 +29°C° 0 mm 3 mps 755 mmHg 50%
    04:00 +28°C° 0 mm 2 mps 755 mmHg 52%
    05:00 +28°C° 0 mm 2 mps 756 mmHg 50%
    06:00 +28°C° 0 mm 2 mps 756 mmHg 47%
    07:00 +28°C° 0 mm 2 mps 757 mmHg 45%
    08:00 +30°C° 0 mm 2 mps 757 mmHg 37%
    09:00 +32°C° 0 mm 1 mps 757 mmHg 29%
    10:00 +34°C° 0 mm 1 mps 757 mmHg 22%
    11:00 +36°C° 0 mm 3 mps 757 mmHg 22%
    12:00 +36°C° 0 mm 4 mps 756 mmHg 23%
    13:00 +37°C° 0 mm 5 mps 756 mmHg 24%
    14:00 +37°C° 0 mm 5 mps 755 mmHg 25%
    15:00 +38°C° 0 mm 6 mps 755 mmHg 26%
    16:00 +36°C° 0 mm 6 mps 755 mmHg 28%
    17:00 +36°C° 0 mm 6 mps 755 mmHg 29%
    18:00 +35°C° 0 mm 5 mps 756 mmHg 31%
    19:00 +34°C° 0 mm 5 mps 756 mmHg 33%
    20:00 +34°C° 0 mm 5 mps 756 mmHg 31%
    21:00 +34°C° 0 mm 4 mps 757 mmHg 29%
    22:00 +34°C° 0 mm 4 mps 757 mmHg 27%
    23:00 +33°C° 0 mm 4 mps 757 mmHg 28%

    26 March, Tuesday

    Time Temperature Precipitation Wind Pressure Humidity
    00:00 +33°C° 0 mm 3 mps 756 mmHg 29%
    01:00 +31°C° 0 mm 3 mps 756 mmHg 30%
    02:00 +30°C° 0 mm 3 mps 756 mmHg 29%
    03:00 +29°C° 0 mm 3 mps 756 mmHg 28%
    04:00 +29°C° 0 mm 3 mps 756 mmHg 28%
    05:00 +29°C° 0 mm 3 mps 756 mmHg 27%
    06:00 +29°C° 0 mm 3 mps 757 mmHg 27%
    07:00 +29°C° 0 mm 3 mps 757 mmHg 26%
    08:00 +31°C° 0 mm 3 mps 757 mmHg 21%
    09:00 +35°C° 0 mm 3 mps 757 mmHg 16%
    10:00 +37°C° 0 mm 2 mps 757 mmHg 10%
    11:00 +38°C° 0 mm 3 mps 757 mmHg 11%
    12:00 +39°C° 0 mm 3 mps 757 mmHg 11%
    13:00 +41°C° 0 mm 4 mps 756 mmHg 11%
    14:00 +40°C° 0 mm 4 mps 756 mmHg 15%
    15:00 +38°C° 0 mm 3 mps 755 mmHg 19%
    16:00 +37°C° 0 mm 3 mps 755 mmHg 23%
    17:00 +36°C° 0 mm 3 mps 755 mmHg 24%
    18:00 +36°C° 0 mm 3 mps 756 mmHg 26%
    19:00 +35°C° 0 mm 3 mps 756 mmHg 28%
    20:00 +35°C° 0 mm 3 mps 757 mmHg 26%
    21:00 +35°C° 0 mm 3 mps 757 mmHg 25%
    22:00 +35°C° 0 mm 4 mps 758 mmHg 23%
    23:00 +33°C° 0 mm 4 mps 757 mmHg 27%
    Show more